Regional Weather Roundup
Issued by NWS Bismarck, ND

Home | Current Version | Previous Version | Text Only | Print | Product List | Glossary On
Versions: 1 2 3 4 5 6 7 8 9 10 11 12 13 14 15 16 17 18 19 20 21 22 23 24 25 26 27 28 29 30 31 32 33 34 35 36 37 38 39 40 41 42 43 44 45 46 47 48 49 50
000
ASUS43 KBIS 310820
RWRBIS

NWR BROADCAST TEXT
NATIONAL WEATHER SERVICE BISMARCK ND
300 AM CDT FRI OCT 31 2014

NOTE: "FAIR" INDICATES FEW OR NO CLOUDS BELOW 12,000 FEET WITH NO
SIGNIFICANT WEATHER AND/OR OBSTRUCTIONS TO VISIBILITY.


CITY           SKY/WX    TMP DP  RH WIND       PRES   REMARKS
WILLISTON      CLOUDY    30  23  75 SE13G20   30.45F WCI  20
MINOT          PTCLDY    15  11  83 SE6       30.55S WCI   6
MINOT AFB      PTCLDY    15  15  98 SE6       30.54F WCI   7
BISMARCK       PTCLDY    19  17  92 NE6       30.59S WCI  11
DICKINSON      CLOUDY    29  24  82 SE17      30.46F WCI  17
GARRISON         N/A     21  18  88 SE7       30.53F WCI  12
HETTINGER ARPT CLOUDY    29  24  82 SE15      30.50S WCI  18
JAMESTOWN      CLEAR     19  15  84 NW3       30.58R
BEACH            N/A     30  30 100 SE23G32   30.39F FOG     WCI  17
CARRINGTON     FAIR      14  14 100 W3        30.59S
CROSBY         FAIR      23  21  93 SE7       30.46F WCI  15
HARVEY         FAIR      14  12  92 CALM      30.58S
HAZEN          FAIR      16  10  79 SE5       30.55F WCI   9
LINTON         FAIR      16  16 100 E5        30.58S WCI   9
MANDAN         PTSUNNY   21  19  93 E7        30.57S WCI  13
OAKES            N/A     19  18  93 N7        30.58R WCI  10
RUGBY          FAIR      19  18  93 SE5       30.58R WCI  13
STANLEY        FAIR      21  21 100 SE10      30.48F WCI  10
TIOGA          CLOUDY    27  27 100 SE13      30.49F WCI  16
$$

CITY           SKY/WX    TMP DP  RH WIND       PRES   REMARKS
GRAND FORKS    CLEAR     17  13  84 NW6       30.61R WCI   9
GRAND FORKS AF CLEAR     17  14  88 N6        30.61S WCI   9
DEVILS LAKE    PTCLDY    18   9  68 CALM      30.56S
FARGO          CLEAR     20  16  84 NW8       30.60R WCI  10
CANDO          FAIR      12  10  92 W3        30.59S
CAVALIER       FAIR      19  16  86 CALM      30.62S
GRAFTON        FAIR      18  14  86 N5        30.62S WCI  11
GWINNER        SUNNY     23  18  80 N8        30.59S WCI  14
LANGDON        FAIR       7   5  92 CALM      30.57S
ROLLA          FAIR      10   9  92 S3        30.57S
WALHALLA       FAIR      14  14 100 CALM      30.62S
$$

CITY           SKY/WX    TMP DP  RH WIND       PRES   REMARKS
ABERDEEN       CLEAR     18  14  84 NW6       30.60R WCI  10
MOBRIDGE       PTCLDY    25  20  81 E8        30.55S WCI  16
BUFFALO          N/A     32  28  85 SE15      30.37F
RAPID CITY     CLOUDY    30  29  96 SE13      30.48F FOG     WCI  20
GLASGOW        PTCLDY    34  29  82 SE20      30.27F
SIDNEY         CLOUDY    34  27  75 SE18      30.42F
WOLF POINT     CLOUDY    37  30  75 SE14      30.36F
GLENDIVE       CLOUDY    34  28  80 SE13G18   30.37F
MILES CITY     CLOUDY    34  29  82 SE14      30.30F
BAKER          CLOUDY    33  28  81 SE26G35   30.39F WCI  20
$$

CITY           SKY/WX    TMP DP  RH WIND       PRES   REMARKS
BILLINGS       MOCLDY    39  31  72 N6        30.13F
GREAT FALLS    CLOUDY    50  32  50 SE14      29.96F
REGINA         MOCLDY    25  23  93 SE21G29   30.38F WCI  10
ESTEVAN        PTCLDY    21  18  86 SE9       30.47F WCI  11
$$




USA.gov is the U.S. government's official web portal to all federal, state and local government web resources and services.